Tributaries of Vltava river

river Berounka - water gauge Beroun

Date and time (UTC) H (cm) Q (m3/s)
3. 6. 2020 13:50 71 9
3. 6. 2020 13:00 71 9
3. 6. 2020 12:00 71 9
3. 6. 2020 11:00 70 9
3. 6. 2020 10:00 69 9
3. 6. 2020 09:00 63 8
3. 6. 2020 08:00 63 8
3. 6. 2020 07:00 70 9
3. 6. 2020 06:00 68 9
3. 6. 2020 05:00 71 9
3. 6. 2020 04:00 75 10
3. 6. 2020 03:00 77 11
3. 6. 2020 02:00 77 11
3. 6. 2020 01:00 73 9

H - water level, Q - discharge

river Sázava - water gauge Nespeky

Date and time (UTC) H (cm) Q (m3/s)
3. 6. 2020 13:50 45 4.1
3. 6. 2020 13:00 44 4
3. 6. 2020 12:00 45 4
3. 6. 2020 11:00 48 5
3. 6. 2020 10:00 48 5
3. 6. 2020 09:00 48 5
3. 6. 2020 08:00 48 5
3. 6. 2020 07:00 47 5
3. 6. 2020 06:00 47 5
3. 6. 2020 05:00 48 5
3. 6. 2020 04:00 50 5
3. 6. 2020 03:00 51 6
3. 6. 2020 02:00 51 6
3. 6. 2020 01:00 50 5

H - water level, Q - discharge

river Otava - water gauge Písek

Date and time (UTC) H (cm) Q (m3/s)
3. 6. 2020 13:40 56 8.1
3. 6. 2020 13:00 56 8
3. 6. 2020 12:00 55 8
3. 6. 2020 11:00 55 8
3. 6. 2020 10:00 56 8
3. 6. 2020 09:00 55 8
3. 6. 2020 08:00 55 8
3. 6. 2020 07:00 55 8
3. 6. 2020 06:00 55 8
3. 6. 2020 05:00 55 8
3. 6. 2020 04:00 55 8
3. 6. 2020 03:00 55 8
3. 6. 2020 02:00 55 8
3. 6. 2020 01:00 55 8

H - water level, Q - discharge

river Lužnice - water gauge Bechyně

Date and time (UTC) H (cm) Q (m3/s)
3. 6. 2020 13:50 93 4.9
3. 6. 2020 13:00 86 4
3. 6. 2020 12:00 84 3
3. 6. 2020 11:00 78 2
3. 6. 2020 10:00 87 4
3. 6. 2020 09:00 83 3
3. 6. 2020 08:00 82 3
3. 6. 2020 07:00 83 3
3. 6. 2020 06:00 81 3
3. 6. 2020 05:00 76 2
3. 6. 2020 04:00 86 4
3. 6. 2020 03:00 75 2
3. 6. 2020 02:00 79 2
3. 6. 2020 01:00 80 3

H - water level, Q - discharge
Source data
Labe Basin Vltava Basin Povodí Moravy ČHMÚ